Regional Weather Roundup
Issued by NWS

Home | Current Version | Previous Version | Text Only | Print | Product List | Glossary On
Versions: 1 2 3 4 5 6 7 8 9 10 11 12 13 14 15 16 17 18 19 20 21 22 23 24 25 26 27 28 29 30 31 32 33 34 35 36 37 38 39 40 41 42 43 44 45 46 47 48 49 50
000
ASUS43 KOAX 062002
RWRNE

WEATHER ROUNDUP FOR NEBRASKA
NATIONAL WEATHER SERVICE OMAHA NE
300 PM CDT FRI MAY 06 2016

NOTES: SATELLITE DATA IS BEING USED TO AUGMENT CLOUD COVER ABOVE
       12000 FEET.
       "FAIR" INDICATES FEW OR NO CLOUDS BELOW 12,000 FEET WITH NO
       SIGNIFICANT WEATHER AND/OR OBSTRUCTIONS TO VISIBILITY.

  * THESE STATIONS DO NOT REPORT WEATHER SUCH AS RAIN...SNOW OR FOG.

NEZ001>004-019>022-054>056-062100-
NEBRASKA PANHANDLE

CITY           SKY/WX    TMP DP  RH WIND       PRES   REMARKS
SCOTTSBLUFF    CLOUDY    78  47  33 E15G22    29.91F
ALLIANCE       PTSUNNY   78  44  29 S12       29.92F
CHADRON        PTSUNNY   85  49  28 NE16      29.91R
SIDNEY         PTSUNNY   80  49  33 SE17G23   29.93F
$$

NEZ057>060-069>072-079>082-062100-
SOUTHWEST NEBRASKA

CITY           SKY/WX    TMP DP  RH WIND       PRES   REMARKS
NORTH PLATTE   CLOUDY    79  50  36 SE15      29.91F
IMPERIAL       PTSUNNY   82  51  34 SE14      29.90F
MCCOOK         PTSUNNY   81  52  36 S13G23    29.90F
$$

NEZ005>010-023>029-035>040-094-062100-
NORTH CENTRAL NEBRASKA

CITY           SKY/WX    TMP DP  RH WIND       PRES   REMARKS
VALENTINE      PTSUNNY   86  38  18 S16       29.87F
AINSWORTH      MOSUNNY   84  47  27 S16G22    29.89F
BROKEN BOW     MOSUNNY   83  51  33 S17G24    29.92F
ORD            PTSUNNY    3  32 100 S18G26    29.90F WCI -17
$$

NEZ041-046>049-061>064-073>077-083>087-062100-
SOUTH CENTRAL NEBRASKA

CITY           SKY/WX    TMP DP  RH WIND       PRES   REMARKS
GRAND ISLAND   MOSUNNY   83  47  28 SW20G30   29.93F
AURORA         MOSUNNY   83  46  26 S25G31    29.94F
HASTINGS       MOSUNNY   82  50  32 S17G23    29.94F
KEARNEY *      SUNNY     81  50  34 S22G30    29.94F
YORK           MOSUNNY   84  45  24 SW20G29   29.94F
$$

NEZ011>018-030>034-042>045-062100-
NORTHEAST NEBRASKA

CITY           SKY/WX    TMP DP  RH WIND       PRES   REMARKS
NORFOLK        SUNNY     85  47  26 SW18      29.89F
ALBION         SUNNY     82  48  30 SW17G23   29.92S
BLAIR          SUNNY     87  42  20 SW18G25   29.93F
COLUMBUS *     SUNNY     86  46  25 S21G28    29.92F
FREMONT        SUNNY     85  43  23 SW15G22   29.92F
TEKAMAH        SUNNY     87  46  24 SW23G30   29.90F
$$

NEZ050>053-065>068-078-088>093-062100-
SOUTHEAST NEBRASKA

CITY           SKY/WX    TMP DP  RH WIND       PRES   REMARKS
LINCOLN        SUNNY     88  40  18 S20G28    29.94F
OMAHA EPPLEY   PTSUNNY   87  42  20 SW15G28   29.91F
BEATRICE       MOSUNNY   83  43  24 S18       29.96F
FALLS CITY     SUNNY     84  48  28 S15       29.97F
$$

NEZ044-045-051>053-067-062100-
OMAHA AREA

CITY           SKY/WX    TMP DP  RH WIND       PRES   REMARKS
OMAHA EPPLEY   PTSUNNY   87  42  20 SW15G28   29.91F
BLAIR          SUNNY     87  42  20 SW18G25   29.93F
FREMONT        SUNNY     85  43  23 SW15G22   29.92F
OFFUTT AFB     SUNNY     86  41  20 S16G22    29.92F
$$




USA.gov is the U.S. government's official web portal to all federal, state and local government web resources and services.